Location: ??????
(38.1303°N, 24.0039°E)
Time: 23:45:15
(UTC+00:00)

SL-16 R/B - Pass Details

Date: 20 June 2021
Orbit: 985 x 1007 km, 99.5° (Epoch: 28 July)

Event Time Altitude Azimuth Distance (km) Brightness Sun altitude
Exits shadow 00:59:50 30° 222° (SW) 1,689 3.2 -18.6°
Maximum altitude 01:01:55 39° 261° (W) 1,456 3.1 -18.3°
Drops below altitude 10° 01:07:39 10° 329° (NNW) 2,757 5.1 -17.6°
Sets 01:10:20 0° 337° (NNW) 3,707 5.9 -17.3°
